Overview Statistics Trail Chart Weather Telemetry Raw packets
 

This is the latest recevied weather packets stored in our database for station/object EB2EMZ-W. If no packets are shown the sender has not sent any weather packets the latest 10 day(s).

<< 3 4 5 6 7 8 9 >>
Time Temp. Humidity Pressure Rain* Wind** Luminosity Snow
1788394007 17.22° C 77% 1010 hPa 0 mm - - -
1788392186 17.78° C 80% 1010 hPa 0 mm - - -
1788389165 18.33° C 78% 1010 hPa 0 mm - - -
1788387353 18.33° C 74% 1010 hPa 0 mm - - -
1788385541 18.89° C 74% 1010 hPa 0 mm - - -
1788383726 18.89° C 75% 1010 hPa 0 mm - - -
1788381913 19.44° C 71% 1010 hPa 0 mm - - -
1788380102 20° C 71% 1010 hPa 0 mm - - -
1788378289 20.56° C 65% 1009 hPa 0 mm - - -
1788376476 21.67° C 62% 1009 hPa 0 mm - - -
1788374663 22.22° C 57% 1008 hPa 0 mm - - -
1788372849 23.33° C 49% 1008 hPa 0 mm - - -
1788371035 29.44° C 29% 1008 hPa 0 mm - - -
1788369222 37.22° C 17% 1007.3 hPa 0 mm - - -
1788367408 37.78° C 18% 1007 hPa 0 mm - - -
1788365596 40.56° C 15% 1007 hPa 0 mm - - -
1788363781 41.67° C 14% 1007 hPa 0 mm - - -
1788361970 38.33° C 18% 1007 hPa 0 mm - - -
1788360157 28.33° C 34% 1007 hPa 0 mm - - -
1788358344 28.33° C 34% 1007 hPa 0 mm - - -
1788356531 28.33° C 35% 1009 hPa 0 mm - - -
1788354718 27.78° C 35% 1008 hPa 0 mm - - -
1788352905 27.78° C 35% 1007 hPa 0 mm - - -
1788351090 27.78° C 33% 1007 hPa 0 mm - - -
1788349278 27.22° C 33% 1007 hPa 0 mm - - -

* Rain latest hour (hover to see other rain measurements)
** Current wind speed in m/s (hover to see current wind gust speed)